FW8533 Weather Reports


time (UTC)temp
F
wind
direction
speed
knots
gust
knots
rain 1hr
in
rain 24hr
in
rain mn
in
humidity
%
barometer
mb
20260505153140 52 184 3.5 4.3 0.00 0.00 0.00 41 1014.9
20260505152637 52 157 0.0 0.0 0.00 0.00 0.00 42 1014.9
20260505152133 51 176 1.7 2.6 0.00 0.00 0.00 42 1014.9
20260505151628 51 147 0.9 0.9 0.00 0.00 0.00 41 1015.1
20260505151126 51 150 1.7 1.7 0.00 0.00 0.00 42 1014.9
20260505150621 51 196 0.0 0.9 0.00 0.00 0.00 41 1015.0
20260505150119 51 151 2.6 2.6 0.00 0.00 0.00 41 1014.8
20260505140547 51 134 0.0 0.0 0.00 0.00 0.00 44 1015.5
20260505125000 38 135 0.0 0.0 0.00 0.00 0.00 57 1015.1
20260505124457 38 119 0.0 0.0 0.00 0.00 0.00 59 1015.0
20260505123953 38 139 0.0 0.0 0.00 0.00 0.00 59 1015.3
20260505123450 38 131 0.0 0.0 0.00 0.00 0.00 58 1015.0
20260505122946 38 130 0.0 0.0 0.00 0.00 0.00 57 1015.0
20260505122444 39 131 0.0 0.0 0.00 0.00 0.00 57 1015.0
20260505121940 38 120 0.9 0.9 0.00 0.00 0.00 57 1014.9
20260505121437 39 122 0.9 0.9 0.00 0.00 0.00 57 1014.9
20260505120933 39 139 0.0 0.0 0.00 0.00 0.00 56 1014.9
20260505120430 39 139 0.0 0.0 0.00 0.00 0.00 55 1015.1
20260505115929 40 120 0.9 0.9 0.00 0.00 0.00 55 1015.3
20260505115426 40 130 0.0 0.9 0.00 0.00 0.00 55 1015.1
20260505114924 40 85 0.9 1.7 0.00 0.00 0.00 55 1015.5
20260505114419 41 127 0.0 0.9 0.00 0.00 0.00 54 1015.5
20260505113916 41 104 0.9 1.7 0.00 0.00 0.00 54 1015.3
20260505113413 41 133 0.0 0.0 0.00 0.00 0.00 54 1015.1
20260505112909 41 139 0.0 0.0 0.00 0.00 0.00 54 1015.3
20260505112407 41 137 0.0 0.0 0.00 0.00 0.00 53 1015.1
20260505111902 41 145 0.0 0.0 0.00 0.00 0.00 52 1015.0
20260505111357 41 132 0.0 0.0 0.00 0.00 0.00 53 1015.1
20260505110853 42 139 0.0 0.0 0.00 0.00 0.00 52 1015.0
20260505110351 43 140 0.0 0.0 0.00 0.00 0.00 51 1015.0
20260505101821 42 136 0.0 0.0 0.00 0.00 0.00 51 1015.0
20260505101316 42 140 0.0 0.0 0.00 0.00 0.00 50 1014.6
20260505100812 43 136 0.0 0.0 0.00 0.00 0.00 49 1014.9
20260505100309 42 130 0.0 0.0 0.00 0.00 0.00 50 1014.9
20260505095805 43 138 0.0 0.0 0.00 0.00 0.00 50 1014.9
20260505095304 43 124 0.0 0.9 0.00 0.00 0.00 49 1014.8
20260505094758 43 124 0.9 0.9 0.00 0.00 0.00 49 1015.0
20260505094255 43 127 0.0 0.0 0.00 0.00 0.00 49 1014.9
20260505093751 44 131 0.0 0.0 0.00 0.00 0.00 48 1014.9
20260505093249 44 132 0.0 0.0 0.00 0.00 0.00 48 1014.9
20260505092745 45 139 0.0 0.0 0.00 0.00 0.00 47 1015.0
20260505092244 45 136 0.0 0.0 0.00 0.00 0.00 45 1015.0
20260505091741 46 136 0.0 0.0 0.00 0.00 0.00 44 1015.3
20260505091239 46 140 0.0 0.0 0.00 0.00 0.00 44 1015.1
20260505090736 46 150 0.0 0.0 0.00 0.00 0.00 43 1015.8
20260505090234 47 143 0.0 0.0 0.00 0.00 0.00 42 1015.6
20260505085731 47 141 0.9 1.7 0.00 0.00 0.00 42 1015.5
20260505085230 46 135 0.0 0.0 0.00 0.00 0.00 44 1015.6
20260505084726 46 129 0.9 0.9 0.00 0.00 0.00 43 1015.5
20260505084226 46 116 0.0 0.9 0.00 0.00 0.00 43 1015.8
20260505083722 46 139 0.0 0.0 0.00 0.00 0.00 46 1016.3
20260505083219 46 131 0.0 0.0 0.00 0.00 0.00 45 1016.3
20260505082715 47 130 0.0 0.0 0.00 0.00 0.00 44 1016.2
20260505082213 48 135 0.0 0.0 0.00 0.00 0.00 42 1016.2
20260505081708 48 141 0.0 0.0 0.00 0.00 0.00 41 1016.3
20260505081206 47 149 0.9 0.9 0.00 0.00 0.00 41 1016.3
20260505080703 47 131 0.0 0.0 0.00 0.00 0.00 43 1016.0
20260505080158 48 146 0.0 0.0 0.00 0.00 0.00 45 1016.2
20260505075654 48 123 0.0 0.0 0.00 0.00 0.00 42 1016.0
20260505075151 49 139 0.0 0.0 0.00 0.00 0.00 41 1016.0
20260505074648 48 121 0.9 1.7 0.00 0.00 0.00 40 1016.0
20260505074145 48 313 0.0 0.0 0.00 0.00 0.00 43 1015.8
20260505073643 48 135 0.9 0.9 0.00 0.00 0.00 42 1015.8
20260505073141 48 150 0.0 0.0 0.00 0.00 0.00 42 1015.6
20260505072636 48 126 0.0 0.9 0.00 0.00 0.00 42 1015.5
20260505072133 48 116 0.0 0.0 0.00 0.00 0.00 42 1015.5
20260505071628 48 144 0.0 0.0 0.00 0.00 0.00 43 1015.4
20260505071127 47 146 0.0 0.0 0.00 0.00 0.00 43 1015.5
20260505070624 47 139 0.0 0.0 0.00 0.00 0.00 44 1015.5
20260505070119 47 115 0.9 0.9 0.00 0.00 0.00 43 1015.3
20260505065616 46 118 0.9 1.7 0.00 0.00 0.00 45 1015.1
20260505065112 46 132 0.0 0.9 0.00 0.00 0.00 44 1015.1
20260505064609 46 133 0.0 0.0 0.00 0.00 0.00 46 1015.3
20260505064108 46 94 0.9 1.7 0.00 0.00 0.00 47 1015.3
20260505063605 44 123 0.9 0.9 0.00 0.00 0.00 45 1015.5
20260505063100 44 128 0.0 0.0 0.00 0.00 0.00 48 1015.3
20260505062557 43 111 0.9 0.9 0.00 0.00 0.00 47 1015.0
20260505062055 43 107 0.9 0.9 0.00 0.00 0.00 47 1015.1
20260505061552 43 124 0.9 0.9 0.00 0.00 0.00 47 1015.4
20260505061050 44 133 0.0 0.0 0.00 0.00 0.00 48 1015.4
20260505060547 44 132 0.0 0.0 0.00 0.00 0.00 47 1015.1
20260505060044 44 122 0.0 0.0 0.00 0.00 0.00 45 1014.9
20260505055539 45 136 0.0 0.0 0.00 0.00 0.00 45 1015.3
20260505055036 44 127 0.0 0.0 0.00 0.00 0.00 45 1015.3
20260505054533 45 125 0.0 0.0 0.00 0.00 0.00 44 1015.3
20260505054031 45 143 0.0 0.0 0.00 0.00 0.00 43 1015.5
20260505053528 46 126 0.0 0.0 0.00 0.00 0.00 42 1015.3
20260505053025 46 137 0.0 0.0 0.00 0.00 0.00 42 1015.5
20260505052522 46 132 0.0 0.0 0.00 0.00 0.00 41 1015.5
20260505052019 47 118 0.9 0.9 0.00 0.00 0.00 41 1015.4
20260505051516 47 134 0.0 0.0 0.00 0.00 0.00 40 1015.5
20260505051014 48 133 0.0 0.0 0.00 0.00 0.00 38 1015.4
20260505050512 48 134 0.0 0.0 0.00 0.00 0.00 39 1015.5
20260505041439 49 133 0.0 0.0 0.00 0.00 0.00 36 1015.8
20260505040937 48 129 0.0 0.0 0.00 0.00 0.00 36 1015.6
20260505040434 49 147 0.0 0.0 0.00 0.00 0.00 37 1015.6
20260505035931 49 132 0.0 0.0 0.00 0.00 0.00 36 1015.6
20260505035427 49 148 0.0 0.9 0.00 0.00 0.00 35 1015.9
20260505034924 49 133 0.0 0.0 0.00 0.00 0.00 35 1015.5
20260505034420 50 137 0.0 0.0 0.00 0.00 0.00 36 1015.8
20260505033918 50 131 0.0 0.0 0.00 0.00 0.00 35 1015.8
20260505033414 49 139 0.0 0.0 0.00 0.00 0.00 36 1015.4
20260505032913 49 137 0.0 0.0 0.00 0.00 0.00 35 1015.6
20260505032409 49 136 0.0 0.0 0.00 0.00 0.00 34 1015.5
20260505031906 49 134 0.0 0.0 0.00 0.00 0.00 35 1015.3
20260505031403 49 125 0.0 0.9 0.00 0.00 0.00 34 1015.4
20260505030900 49 132 0.0 0.0 0.00 0.00 0.00 34 1015.1
20260505030356 49 138 0.0 0.9 0.00 0.00 0.00 35 1015.3
20260505025851 49 130 0.0 0.9 0.00 0.00 0.00 34 1015.0
20260505025349 49 132 0.0 0.9 0.00 0.00 0.00 33 1014.8
20260505024848 50 132 0.0 0.0 0.00 0.00 0.00 33 1014.9
20260505024345 50 134 0.0 0.0 0.00 0.00 0.00 33 1015.1
20260505023842 51 136 0.0 0.0 0.00 0.00 0.00 32 1014.9
20260505023339 52 139 0.0 0.0 0.00 0.00 0.00 31 1014.8
20260505022836 52 136 0.0 0.0 0.00 0.00 0.00 31 1015.0
20260505022333 0 0.0 0.0 0.00 0.00 0.00 1014.8
20260505021830 53 138 0.0 0.0 0.00 0.00 0.00 28 1015.0
20260505021327 53 138 0.0 0.0 0.00 0.00 0.00 28 1014.9
20260505020822 54 136 0.0 0.0 0.00 0.00 0.00 28 1014.9
20260505020318 55 135 0.0 0.0 0.00 0.00 0.00 28 1014.9
20260505015815 55 136 0.0 0.0 0.00 0.00 0.00 27 1015.0
20260505015312 56 144 0.0 0.0 0.00 0.00 0.00 27 1014.9
20260505014810 56 145 0.9 0.9 0.00 0.00 0.00 26 1015.1
20260505014307 57 150 0.0 0.9 0.00 0.00 0.00 26 1014.8
20260505013803 57 164 0.9 0.9 0.00 0.00 0.00 26 1014.8
20260505013300 57 168 1.7 1.7 0.00 0.00 0.00 25 1014.6
20260505012759 57 148 0.0 0.0 0.00 0.00 0.00 25 1014.4
20260505012256 58 139 1.7 2.6 0.00 0.00 0.00 24 1014.5
20260505011751 58 148 1.7 1.7 0.00 0.00 0.00 24 1014.8
20260505011249 58 151 0.0 0.9 0.00 0.00 0.00 24 1014.6
20260505010744 58 204 2.6 2.6 0.00 0.00 0.00 24 1014.9
20260505010241 59 165 0.0 0.0 0.00 0.00 0.00 23 1014.8
20260505005737 59 171 1.7 1.7 0.00 0.00 0.00 23 1014.8
20260505005234 59 175 0.0 0.9 0.00 0.00 0.00 22 1014.6
20260505004731 59 108 1.7 2.6 0.00 0.00 0.00 23 1014.8
20260505004227 60 154 0.9 0.9 0.00 0.00 0.00 23 1014.6
20260505003725 60 175 1.7 2.6 0.00 0.00 0.00 22 1014.8
20260505003223 60 254 4.3 5.2 0.00 0.00 0.00 22 1014.8
20260505002719 60 149 1.7 2.6 0.00 0.00 0.00 22 1014.8
20260505002216 61 154 1.7 2.6 0.00 0.00 0.00 22 1014.8
20260505001714 61 276 3.5 5.2 0.00 0.00 0.00 22 1014.9
20260505001211 61 198 0.9 1.7 0.00 0.00 0.00 22 1014.9
20260505000708 61 174 4.3 4.3 0.00 0.00 0.00 22 1015.0
20260505000206 61 158 1.7 1.7 0.00 0.00 0.00 22 1015.0
20260504235702 61 150 0.9 0.9 0.00 0.00 0.00 22 1014.9
20260504235158 61 135 0.9 0.9 0.00 0.00 0.00 22 1014.9
20260504234656 62 170 0.9 1.7 0.00 0.00 0.00 21 1014.9
20260504234153 62 227 5.2 7.0 0.00 0.00 0.00 21 1014.6
20260504233649 62 205 3.5 4.3 0.00 0.00 0.00 21 1014.5
20260504233145 62 119 1.7 1.7 0.00 0.00 0.00 22 1014.5
20260504232643 62 222 3.5 4.3 0.00 0.00 0.00 21 1014.5
20260504232139 63 153 1.7 1.7 0.00 0.00 0.00 21 1014.9
20260504231636 65 146 0.9 0.9 0.00 0.00 0.00 20 1014.3
20260504231132 64 269 3.5 5.2 0.00 0.00 0.00 21 1014.5
20260504230629 65 129 1.7 1.7 0.00 0.00 0.00 21 1014.6
20260504230127 65 151 0.9 0.9 0.00 0.00 0.00 21 1014.8
20260504225625 65 174 0.9 1.7 0.00 0.00 0.00 21 1014.5
20260504225121 66 157 5.2 9.6 0.00 0.00 0.00 20 1014.1
20260504224618 65 161 0.9 0.9 0.00 0.00 0.00 21 1014.3
20260504224115 65 195 2.6 2.6 0.00 0.00 0.00 20 1014.4
20260504223612 65 166 1.7 1.7 0.00 0.00 0.00 19 1014.4
20260504223108 66 205 4.3 5.2 0.00 0.00 0.00 20 1014.5
20260504222605 66 230 4.3 5.2 0.00 0.00 0.00 20 1014.5
20260504222102 66 43 0.9 2.6 0.00 0.00 0.00 20 1014.6
20260504221559 66 183 1.7 2.6 0.00 0.00 0.00 19 1014.5
20260504221056 66 261 4.3 5.2 0.00 0.00 0.00 21 1014.6
20260504220552 66 146 0.0 0.9 0.00 0.00 0.00 21 1014.5
20260504220050 67 181 2.6 4.3 0.00 0.00 0.00 20 1014.8
20260504215546 66 237 2.6 4.3 0.00 0.00 0.00 20 1014.5
20260504215044 67 214 1.7 1.7 0.00 0.00 0.00 20 1015.0
20260504214539 67 150 1.7 2.6 0.00 0.00 0.00 20 1014.9
20260504214036 65 244 3.5 5.2 0.00 0.00 0.00 21 1015.0
20260504213532 65 206 1.7 2.6 0.00 0.00 0.00 22 1015.1
20260504213030 66 213 2.6 2.6 0.00 0.00 0.00 22 1015.3
20260504212525 68 183 3.5 4.3 0.00 0.00 0.00 22 1015.1
20260504212023 66 149 0.9 1.7 0.00 0.00 0.00 23 1015.3
20260504211520 66 166 0.9 0.9 0.00 0.00 0.00 22 1015.4
20260504211017 65 170 2.6 4.3 0.00 0.00 0.00 24 1015.6
20260504210514 65 192 2.6 4.3 0.00 0.00 0.00 24 1015.6
20260504210011 65 194 1.7 2.6 0.00 0.00 0.00 25 1015.4
20260504205509 66 171 2.6 2.6 0.00 0.00 0.00 24 1015.4
20260504205006 66 288 1.7 2.6 0.00 0.00 0.00 23 1015.6
20260504204504 65 211 3.5 5.2 0.00 0.00 0.00 26 1015.8
20260504204003 64 148 1.7 1.7 0.00 0.00 0.00 26 1015.9
20260504203500 65 145 1.7 1.7 0.00 0.00 0.00 24 1016.0
20260504202956 64 168 1.7 4.3 0.00 0.00 0.00 26 1015.9
20260504202453 66 209 2.6 4.3 0.00 0.00 0.00 26 1016.0
20260504201950 64 192 2.6 2.6 0.00 0.00 0.00 27 1016.2
20260504201447 64 181 2.6 2.6 0.00 0.00 0.00 29 1016.0
20260504200944 63 195 1.7 2.6 0.00 0.00 0.00 28 1016.2
20260504200441 63 155 4.3 6.1 0.00 0.00 0.00 29 1016.0
20260504195938 64 177 2.6 2.6 0.00 0.00 0.00 29 1016.2
20260504195433 63 221 0.9 1.7 0.00 0.00 0.00 31 1016.5
20260504194930 63 203 2.6 2.6 0.00 0.00 0.00 32 1016.5
20260504194426 64 158 2.6 2.6 0.00 0.00 0.00 31 1016.4
20260504193922 64 218 2.6 4.3 0.00 0.00 0.00 31 1016.0
20260504193420 64 120 2.6 2.6 0.00 0.00 0.00 31 1016.3
20260504192919 64 213 4.3 6.1 0.00 0.00 0.00 31 1016.4
20260504192415 62 111 2.6 2.6 0.00 0.00 0.00 33 1016.5
20260504191914 62 114 0.9 1.7 0.00 0.00 0.00 32 1016.5
20260504191412 63 198 2.6 4.3 0.00 0.00 0.00 33 1016.4
20260504190906 62 163 1.7 1.7 0.00 0.00 0.00 34 1016.5
20260504190403 61 150 0.0 0.9 0.00 0.00 0.00 35 1016.7
20260504185900 60 164 2.6 2.6 0.00 0.00 0.00 37 1016.9
20260504185357 60 152 0.9 0.9 0.00 0.00 0.00 37 1016.8
20260504184853 61 170 0.9 2.6 0.00 0.00 0.00 35 1017.0
20260504184349 60 185 2.6 2.6 0.00 0.00 0.00 38 1017.0
20260504183845 60 162 0.0 0.9 0.00 0.00 0.00 37 1017.0
20260504183342 62 205 3.5 4.3 0.00 0.00 0.00 36 1016.9
20260504182840 61 158 3.5 4.3 0.00 0.00 0.00 36 1016.9
20260504182337 62 174 1.7 1.7 0.00 0.00 0.00 36 1016.9
20260504181834 61 149 0.0 0.0 0.00 0.00 0.00 37 1017.4
20260504181331 61 195 1.7 1.7 0.00 0.00 0.00 37 1017.4
20260504180830 61 277 2.6 4.3 0.00 0.00 0.00 38 1017.3
20260504180328 61 225 2.6 2.6 0.00 0.00 0.00 37 1017.3
20260504175826 61 145 0.0 0.9 0.00 0.00 0.00 37 1017.4
20260504175322 60 174 2.6 2.6 0.00 0.00 0.00 40 1017.4
20260504174821 60 155 0.9 1.7 0.00 0.00 0.00 40 1017.8
20260504174318 60 204 3.5 4.3 0.00 0.00 0.00 38 1017.8
20260504173815 61 163 0.9 0.9 0.00 0.00 0.00 40 1017.8
20260504173311 60 141 0.0 0.0 0.00 0.00 0.00 41 1018.1
20260504172808 59 164 0.9 0.9 0.00 0.00 0.00 43 1017.9
20260504172305 59 184 0.9 1.7 0.00 0.00 0.00 42 1018.1
20260504171800 59 175 1.7 1.7 0.00 0.00 0.00 42 1018.1
20260504171258 58 133 0.9 1.7 0.00 0.00 0.00 43 1018.2
20260504170755 57 177 0.9 0.9 0.00 0.00 0.00 45 1018.2
20260504170252 56 149 0.0 0.0 0.00 0.00 0.00 45 1018.2
20260504160210 53 153 0.9 1.7 0.00 0.00 0.00 55 1019.1